Date String (YYYY-MM-DD hh:mm:ss) UTC,Instrument flags,Ambient pressure (hPa),Sample flow (lpm),Bypass flow (lpm),Sample temperature (°C),Ambient temperature (°C),ASC tube jacket temperature (°C),LED temperature (°C),Box temperature (°C),Sample RH (%),Span deviation,Mass concentration (μg/m³),Mass concentration (μg/m³),Mass concentration (μg/m³)
DateTimeUTC,F1_M11,P_M11,Q1_M11,Q2_M11,T1_M11,T2_M11,T3_M11,T4_M11,T5_M11,U1_M11,ZSPAN_M11,X0_M11,X2_M11,X1_M11
2023-02-13 07:00:00,,0824.0,4.97,0.00,21.8,20.5,00.0,30.9,23.5,11.8,0000.0,0009.25,0004.58,0004.11
2023-02-13 07:01:00,,0824.0,5.02,0.00,22.0,21.8,00.0,30.8,23.8,11.5,0000.0,0009.36,0004.55,0004.06
2023-02-13 07:02:00,,0824.1,4.99,0.00,22.1,22.8,00.0,30.8,24.1,11.2,0000.0,0010.01,0004.49,0004.01
2023-02-13 07:03:00,,0824.0,5.01,0.00,22.2,22.4,00.0,30.9,24.1,11.2,0000.0,0009.92,0004.43,0003.97
2023-02-13 07:04:00,,0824.0,4.98,0.00,22.1,21.7,00.0,30.9,23.9,11.1,0000.0,0009.84,0004.38,0003.91
2023-02-13 07:05:00,,0824.0,5.01,0.00,22.1,21.2,00.0,30.9,23.8,10.8,0000.0,0009.73,0004.32,0003.84
2023-02-13 07:06:00,,0824.0,5.00,0.00,22.0,20.7,00.0,30.9,23.6,11.0,0000.0,0009.87,0004.29,0003.80
2023-02-13 07:07:00,,0824.0,4.98,0.00,22.0,20.4,00.0,30.9,23.6,11.4,0000.0,0009.89,0004.26,0003.77
2023-02-13 07:08:00,,0824.0,4.99,0.00,22.0,20.2,00.0,30.9,23.5,11.4,0000.0,0009.85,0004.24,0003.76
2023-02-13 07:09:00,,0823.9,5.00,0.00,21.9,20.1,00.0,30.9,23.4,11.1,0000.0,0009.67,0004.17,0003.72
2023-02-13 07:10:00,,0823.9,4.98,0.00,21.9,19.9,00.0,30.9,23.4,11.0,0000.0,0009.57,0004.12,0003.69
2023-02-13 07:11:00,,0824.0,5.00,0.00,21.8,19.8,00.0,30.9,23.3,11.2,0000.0,0008.71,0004.09,0003.67
2023-02-13 07:12:00,,0824.0,4.99,0.00,21.8,19.9,00.0,30.9,23.4,11.0,0000.0,0008.59,0004.05,0003.64
2023-02-13 07:13:00,,0824.0,5.01,0.00,21.8,20.9,00.0,30.8,23.6,11.0,0000.0,0008.61,0004.04,0003.62
2023-02-13 07:14:00,,0824.0,5.05,0.00,22.0,22.2,00.0,30.8,24.0,11.0,0000.0,0008.82,0004.01,0003.60
2023-02-13 07:15:00,,0824.0,4.97,0.00,22.1,22.8,00.0,30.8,24.2,10.8,0000.0,0008.71,0003.97,0003.59
2023-02-13 07:16:00,,0823.9,5.02,0.00,22.2,22.2,00.0,30.9,24.1,10.9,0000.0,0009.06,0003.99,0003.61
2023-02-13 07:17:00,,0823.9,5.03,0.00,22.2,21.7,00.0,30.9,24.0,10.8,0000.0,0008.82,0003.96,0003.62
2023-02-13 07:18:00,,0823.8,5.03,0.00,22.1,21.3,00.0,30.9,23.9,11.2,0000.0,0008.70,0003.94,0003.62
2023-02-13 07:19:00,,0823.8,4.99,0.00,22.1,21.0,00.0,31.0,23.8,11.6,0000.0,0008.76,0004.00,0003.65
2023-02-13 07:20:00,,0823.8,5.02,0.00,22.1,20.7,00.0,31.0,23.8,11.3,0000.0,0008.90,0004.06,0003.68
2023-02-13 07:21:00,,0823.8,4.99,0.00,22.0,20.5,00.0,31.0,23.7,11.2,0000.0,0008.93,0004.10,0003.70
2023-02-13 07:22:00,,0823.8,5.01,0.00,22.0,20.3,00.0,30.9,23.6,11.3,0000.0,0008.81,0004.12,0003.72
2023-02-13 07:23:00,,0823.8,5.00,0.00,21.9,20.1,00.0,30.9,23.4,11.4,0000.0,0009.20,0004.17,0003.77
2023-02-13 07:24:00,,0823.8,5.00,0.00,21.9,19.9,00.0,30.9,23.3,11.9,0000.0,0008.93,0004.25,0003.84
2023-02-13 07:25:00,,0823.7,5.01,0.00,21.8,19.8,00.0,30.9,23.3,12.4,0000.0,0008.63,0004.37,0003.93
2023-02-13 07:26:00,,0823.7,5.01,0.00,21.8,19.8,00.0,30.9,23.3,12.5,0000.0,0008.88,0004.51,0004.03
2023-02-13 07:27:00,,0823.8,5.02,0.00,21.8,21.0,00.0,30.8,23.6,12.5,0000.0,0008.70,0004.60,0004.11
2023-02-13 07:28:00,,0823.7,4.98,0.00,22.0,22.2,00.0,30.8,23.9,12.5,0000.0,0008.76,0004.68,0004.20
2023-02-13 07:29:00,,0823.7,5.01,0.00,22.1,22.6,00.0,30.8,24.1,12.3,0000.0,0009.18,0004.76,0004.26
2023-02-13 07:30:00,,0823.7,5.01,0.00,22.1,22.0,00.0,30.9,24.0,12.3,0000.0,0009.77,0004.85,0004.31
2023-02-13 07:31:00,,0823.7,5.05,0.00,22.1,21.4,00.0,30.9,23.8,12.3,0000.0,0009.86,0004.90,0004.36
2023-02-13 07:32:00,,0823.7,5.01,0.00,22.0,21.0,00.0,30.9,23.7,12.3,0000.0,0009.96,0004.97,0004.42
2023-02-13 07:33:00,,0823.7,4.99,0.00,22.0,20.6,00.0,30.9,23.6,12.2,0000.0,0010.19,0005.01,0004.49
2023-02-13 07:34:00,,0823.7,5.01,0.00,21.9,20.4,00.0,30.9,23.5,12.1,0000.0,0010.43,0005.05,0004.53
2023-02-13 07:35:00,,0823.7,4.99,0.00,21.9,20.1,00.0,30.9,23.4,12.4,0000.0,0010.32,0005.11,0004.56
2023-02-13 07:36:00,,0823.7,5.00,0.00,21.8,20.0,00.0,30.9,23.4,12.3,0000.0,0010.51,0005.11,0004.57
2023-02-13 07:37:00,,0823.7,5.01,0.00,21.8,19.9,00.0,30.9,23.3,12.3,0000.0,0010.75,0005.08,0004.56
2023-02-13 07:38:00,,0823.7,5.01,0.00,21.7,19.8,00.0,30.8,23.3,12.3,0000.0,0011.26,0005.06,0004.56
2023-02-13 07:39:00,,0823.6,5.04,0.00,21.8,20.6,00.0,30.8,23.5,12.3,0000.0,0011.31,0005.07,0004.55
2023-02-13 07:40:00,,0823.6,4.99,0.00,21.9,21.9,00.0,30.8,23.8,12.2,0000.0,0011.65,0005.05,0004.55
2023-02-13 07:41:00,,0823.6,5.02,0.00,22.0,22.7,00.0,30.8,24.1,12.1,0000.0,0011.78,0004.98,0004.53
2023-02-13 07:42:00,,0823.6,4.96,0.00,22.1,22.2,00.0,30.8,24.0,12.0,0000.0,0011.67,0004.94,0004.52
2023-02-13 07:43:00,,0823.6,5.00,0.00,22.1,21.6,00.0,30.9,23.8,12.0,0000.0,0012.65,0004.94,0004.52
2023-02-13 07:44:00,,0823.6,5.00,0.00,22.0,21.1,00.0,30.9,23.7,12.0,0000.0,0012.76,0004.97,0004.52
2023-02-13 07:45:00,,0823.6,4.98,0.00,22.0,20.7,00.0,30.9,23.6,12.0,0000.0,0012.52,0005.00,0004.52
2023-02-13 07:46:00,,0823.6,4.99,0.00,21.9,20.4,00.0,30.9,23.5,12.0,0000.0,0012.01,0004.98,0004.51
2023-02-13 07:47:00,,0823.6,4.98,0.00,21.9,20.1,00.0,30.9,23.4,11.8,0000.0,0011.80,0004.92,0004.48
2023-02-13 07:48:00,,0823.6,4.98,0.00,21.8,19.9,00.0,30.9,23.3,11.8,0000.0,0011.50,0004.89,0004.45
2023-02-13 07:49:00,,0823.6,4.98,0.00,21.8,19.8,00.0,30.8,23.3,11.9,0000.0,0011.08,0004.87,0004.45
2023-02-13 07:50:00,,0823.6,4.99,0.00,21.7,19.7,00.0,30.8,23.2,11.9,0000.0,0011.11,0004.86,0004.45
2023-02-13 07:51:00,,0823.6,5.02,0.00,21.7,20.2,00.0,30.8,23.3,11.2,0000.0,0011.06,0004.81,0004.41
2023-02-13 07:52:00,,0823.6,4.92,0.00,21.8,21.5,00.0,30.7,23.6,10.9,0000.0,0009.95,0004.76,0004.36
2023-02-13 07:53:00,,0823.6,5.05,0.00,22.0,22.5,00.0,30.7,24.0,10.2,0000.0,0009.79,0004.65,0004.25
2023-02-13 07:54:00,,0823.5,4.97,0.00,22.0,22.3,00.0,30.8,23.9,09.7,0000.0,0008.84,0004.49,0004.10
2023-02-13 07:55:00,,0823.4,4.97,0.00,22.0,21.6,00.0,30.8,23.8,09.3,0000.0,0008.12,0004.24,0003.89
2023-02-13 07:56:00,,0823.4,5.01,0.00,22.0,21.1,00.0,30.8,23.6,09.3,0000.0,0007.78,0004.02,0003.71
2023-02-13 07:57:00,,0823.4,5.02,0.00,22.0,20.7,00.0,30.8,23.6,09.3,0000.0,0007.35,0003.79,0003.52
2023-02-13 07:58:00,,0823.4,4.99,0.00,21.9,20.5,00.0,30.8,23.6,09.1,0000.0,0007.29,0003.57,0003.33
2023-02-13 07:59:00,,0823.4,4.99,0.00,21.9,20.3,00.0,30.8,23.5,09.0,0000.0,0006.98,0003.37,0003.13
